Other Public Products
Issued by NWS Grand Forks, ND

Home | Current Version | Previous Version | Text Only | Print | Product List | Glossary Off
Versions: 1 2 3 4 5 6 7 8 9 10 11 12 13 14 15 16 17 18 19 20 21 22 23 24 25 26 27 28 29 30 31 32 33 34 35 36 37 38 39 40 41 42 43 44 45 46 47 48 49 50

000
FPUS83 KFGF 030331
OPUFGF
PRAIRIE TO PINES WEATHER ROUNDUP
NATIONAL WEATHER SERVICE EASTERN NORTH DAKOTA/GRAND FORKS ND
1000 PM CDT TUE SEP 02 2014

 **SATELLITE DATA USED TO AUGMENT SKY COVER AT AUTOMATED STATIONS**
 *****  WEATHER ACROSS EASTERN NORTH DAKOTA  *****

CITY           SKY/WX    TMP DP  RH WIND       PRES   REMARKS
GRAND FORKS    PTCLDY    65  53  65 SW8       29.70R
GRAND FORKS AF PTCLDY    60  56  88 SW9       29.72R
GRAND CITY NWS   N/A     64 N/A N/A W5          N/A
BUXTON         NOT AVBL
DEVILS LAKE    CLEAR     61  50  67 W6        29.73S
FARGO          PTCLDY    66  57  72 S3        29.74R
WAHPETON ARPT  CLEAR     63  54  72 S8        29.77S
$$

 *****  WEATHER ACROSS CENTRAL AND WESTERN NORTH DAKOTA  *****

CITY           SKY/WX    TMP DP  RH WIND       PRES   REMARKS
JAMESTOWN      PTCLDY    58  54  86 CALM      29.76R
BISMARCK       MOCLDY    58  53  84 CALM      29.78R
MINOT          PTCLDY    59  46  62 NW3       29.75R
MINOT AFB      PTCLDY    55  51  87 SW2       29.74R
GARRISON         N/A     57  51  80 CALM      29.76R
WILLISTON      PTCLDY    55  48  77 W3        29.74R
DICKINSON      CLEAR     52  45  77 S6        29.78S
HETTINGER      CLEAR     59  45  59 NE3       29.80S
$$

 *****  OTHER OBSERVATIONS NORTHEAST NORTH DAKOTA  *****

CITY           SKY/WX    TMP DP  RH WIND       PRES   REMARKS
WALHALLA         N/A     55  55 100 CALM      29.73R
LANGDON        FAIR      54  50  87 CALM      29.74S
CAVALIER       FAIR      55  54  94 CALM      29.72R
GRAFTON        FAIR      57  55  94 N7        29.71S
CANDO          FAIR      54  50  87 NW6       29.75R
FORT TOTTEN      N/A     58  55  88 CALM      29.95S
ROLLA          FAIR      50  50 100 NW7       29.77R
RUGBY          FAIR      55  50  82 W3        29.75S
 ***** THE ABOVE OBSERVATIONS ARE NON NWS ARE NOT QUALITY
        CONTROLLED AND MAY MIS-REPORT RAIN FOR SNOW...
$$

 *****  OTHER OBSERVATIONS SOUTHEAST NORTH DAKOTA *****

CITY           SKY/WX    TMP DP  RH WIND       PRES   REMARKS
COOPERSTOWN    NOT AVBL
VALLEY CITY    MOCLDY    64  54  68 W7        29.76S
OAKES            N/A     63  57  82 S10       29.76S
GWINNER        PTCLDY    64  55  72 S9        29.77S
SHEYENNE NWR     N/A     64  55  72 S7        29.95
BUFFALO          N/A     66  53  63 S6          N/A
WYNDMERE       NOT AVBL
 ***** THE ABOVE OBSERVATIONS ARE NON NWS ARE NOT QUALITY
       CONTROLLED AND MAY MIS-REPORT RAIN FOR SNOW...
$$

  *****  WEATHER ACROSS NORTHERN MINNESOTA  *****

CITY           SKY/WX    TMP DP  RH WIND       PRES   REMARKS
FLAG ISLAND    CLEAR     61  55  82 SW9       29.68S
WARROAD        MOCLDY    55  52  88 SW6       29.72R
ROSEAU         CLEAR     55  50  82 SW3       29.72R
HALLOCK          N/A     55  54  94 CALM      29.72R FOG
THF RVR FALLS  MOCLDY    55  52  88 E6        29.73S
HALSTAD          N/A     60  57  89 SW6         N/A
FOSSTON        PTCLDY    57  54  88 S8        29.75S
BAUDETTE       MOCLDY    57  53  86 S8        29.70S
WASKISH        CLOUDY    55  54  94 SE6       29.75F
CROOKSTON      MOCLDY    64  54  68 W8        29.72S
$$
  *****  WEATHER ACROSS CENTRAL AND WEST MINNESOTA  *****

CITY           SKY/WX    TMP DP  RH WIND       PRES   REMARKS
BEMIDJI        MOCLDY    60  55  81 SW3       29.76S
PARK RAPIDS    MOCLDY    66  55  67 S5        29.78R
WADENA         CLEAR     61  55  82 S8        29.79F
DETROIT LAKES  PTCLDY    68  55  64 SW7       29.78F
MOORHEAD       MOCLDY    66  61  82 W3        29.77R
FERGUS FALLS   CLEAR     66  54  63 S13       29.78S
ELBOW LAKE     FAIR      63  57  81 S10       29.80F
MORRIS MN      CLEAR     63  57  82 S8        29.81F
STAPLES        CLEAR     64  55  72 S9        29.80F
WHEATON        CLEAR     61  55  82 S9        29.80F
$$
  *****  WEATHER ELSEWHERE ACROSS MINNESOTA  *****

CITY           SKY/WX    TMP DP  RH WIND       PRES   REMARKS
DULUTH         PTCLDY    58  53  84 SE5       29.82S
INTRNTL FALLS  CLOUDY    57  54  89 S3        29.74F
ELY            PTCLDY    54  50  87 CALM      29.78F
CLOQUET        PTCLDY    61  52  72 S5        29.82S
BRAINERD       PTCLDY    63  55  75 SW10      29.82R
HIBBING        MOCLDY    55  53  93 CALM      29.79S
ALEXANDRIA     CLEAR     66  56  70 S12       29.84S
SAINT CLOUD    CLEAR     65  58  78 S6        29.84S
MINNEAPOLIS    PTCLDY    70  57  63 SW6       29.87S
$$

  *****  WEATHER ACROSS SOUTH DAKOTA  *****

CITY           SKY/WX    TMP DP  RH WIND       PRES   REMARKS
SIOUX FALLS    MOCLDY    67  57  70 S12       29.88F
BROOKINGS      NOT AVBL
WATERTOWN      MOCLDY    62  56  80 S8        29.83F
HURON          PTCLDY    66  57  72 SE9       29.80S
SISSETON         N/A     68  56  65 SW12      29.78S
ABERDEEN       PTCLDY    62  56  80 S10       29.77R
MITCHELL       CLEAR     68  61  78 S9        29.83S
PIERRE         CLEAR     70  54  56 SE13      29.75S
MOBRIDGE       PTCLDY    60  55  83 N5        29.75R
RAPID CITY     CLEAR     62  45  53 CALM      29.80S
$$

  *****  SOME WEATHER IN NEARBY STATES *****

CITY           SKY/WX    TMP DP  RH WIND       PRES   REMARKS
GLASGOW MT     CLEAR     61  43  51 S8        29.71R
GREAT FALLS MT PTCLDY    62  39  42 N6        29.70R
CHEYENNE WY    PTCLDY    65  41  41 SW9       30.02S
SCOTTSBLUFF NE CLEAR     66  52  60 E5        29.86R
OMAHA NE       CLEAR     69  59  70 SE7       29.96R
DES MOINES IA  CLEAR     71  61  70 S3        29.95S
DAVENPORT IA   CLEAR     60  58  92 CALM      29.96S
CHICAGO IL     PTCLDY    72  58  61 W6        29.94R
EAU CLAIRE WI  CLEAR     60  58  92 SW5       29.88S
LA CROSSE WI   CLEAR     66  60  81 SE5       29.90R
$$

  *****  SOME NATIONAL WEATHER *****

CITY           SKY/WX    TMP DP  RH WIND       PRES   REMARKS
LA GUARDIA NY  MOCLDY    85  67  54 W22G35    29.79F
RALEIGH NC     MOCLDY    78  69  73 SW8       30.00S
ATLANTA GA     PTCLDY    78  71  79 S12       30.07R
NEW ORLEANS LA CLOUDY    77  72  84 N20G31    30.08R THUNDER
OKLAHOMA CITY  CLEAR     82  68  62 SE12      29.93R
ALBUQUERQUE NM PTCLDY    79  32  18 SE8       30.03R
SALT LAKE CITY PTCLDY    79  45  29 NW6       29.81S
LOS ANGELES CA MOCLDY    70  64  81 W13       29.79R
BOISE ID       CLEAR     80  35  19 NW3       29.67S
SEATTLE WA     MOCLDY    62  51  67 W10       29.86R
$$

*** WEATHER ACROSS MANITOBA...SASKATCHEWAN AND ONTARIO ***
                ***ONTARIO***

CITY           SKY/WX    TMP DP  RH WIND       PRES   REMARKS
GERALDTON      PTCLDY    54  48  82 SW2       29.73F
THUNDER BAY    PTCLDY    54  54 100 NW3       29.77S
SIOUX LOOKOUT  PTCLDY    55  50  82 S5        29.70S
TORONTO        CLEAR     64  61  88 W8        29.89R
BIG TROUT LK   NOT AVBL
PICKLE LAKE    NOT AVBL
DRYDEN         CLOUDY    59  52  77 S6        29.70S
KENORA         PTCLDY    57  52  82 SW6       29.71R
$$
                *** MANITOBA***

CITY           SKY/WX    TMP DP  RH WIND       PRES   REMARKS
BRANDON        PTCLDY    55  52  88 VRB2      29.74R
DAUPHIN        CLEAR     54  52  94 CALM      29.71R
ISLAND LAKE    PTCLDY    54  54 100 CALM      29.60S
PILOT MOUND      N/A     55  52  88 N5          N/A
THE PAS        PTCLDY    59  46  63 N7        29.67R
THOMPSON       PTCLDY    50  48  93 W5        29.60R
WINNIPEG       PTCLDY    54  54 100 NW3       29.72R
LYNN LAKE      CLOUDY    50  45  81 MISG      29.67R
CHURCHILL      LGT RAIN  46  45  93 E14G20    29.61R
GILLAM         PTCLDY    57  54  88 NW5       29.53S
$$
                ***SASKATCHEWAN***

CITY           SKY/WX    TMP DP  RH WIND       PRES   REMARKS
ESTEVAN        PTCLDY    57  50  77 E3        29.75S
KINDERSLEY     LGT RAIN  54  50  87 E6        29.73S
LLOYDMINSTER   MOCLDY    50  48  93 NE3       29.74R
PRINCE ALBERT  MOCLDY    54  46  76 CALM      29.71R
REGINA         MOCLDY    61  48  63 NE7       29.72R


USA.gov is the U.S. government's official web portal to all federal, state and local government web resources and services.